TimePDT,TemperatureF,Dew PointF,Humidity,Sea Level PressureIn,VisibilityMPH,Wind Direction,Wind SpeedMPH,Gust SpeedMPH,PrecipitationIn,Events,Conditions,WindDirDegrees,DateUTC
12:53 AM,48.9,46.9,93,29.92,10.0,WSW,18.4,29.9,0.01,,Overcast,240,2013-04-29 07:53:00
1:21 AM,48.2,44.6,87,29.92,10.0,WSW,17.3,28.8,N/A,,Scattered Clouds,240,2013-04-29 08:21:00
1:53 AM,46.9,43.0,86,29.95,10.0,WSW,15.0,23.0,N/A,,Scattered Clouds,240,2013-04-29 08:53:00
2:53 AM,45.0,39.9,82,29.97,10.0,WSW,17.3,23.0,N/A,,Clear,240,2013-04-29 09:53:00
3:53 AM,44.1,39.0,82,29.98,10.0,WSW,20.7,27.6,N/A,,Clear,240,2013-04-29 10:53:00
4:53 AM,43.0,39.0,86,29.99,10.0,WSW,16.1,-,N/A,,Clear,240,2013-04-29 11:53:00
5:53 AM,41.0,37.9,89,30.00,10.0,SW,15.0,-,N/A,,Clear,230,2013-04-29 12:53:00
6:53 AM,42.1,37.9,85,30.03,10.0,SW,16.1,-,N/A,,Clear,230,2013-04-29 13:53:00
7:53 AM,44.1,37.9,79,30.05,10.0,SW,17.3,-,N/A,,Clear,230,2013-04-29 14:53:00
8:53 AM,46.9,36.0,66,30.06,10.0,WSW,18.4,27.6,N/A,,Clear,240,2013-04-29 15:53:00
9:53 AM,48.9,32.0,52,30.08,10.0,WSW,23.0,32.2,N/A,,Clear,250,2013-04-29 16:53:00
10:53 AM,51.1,35.1,54,30.10,10.0,WSW,18.4,29.9,N/A,,Clear,240,2013-04-29 17:53:00
11:53 AM,52.0,32.0,47,30.11,10.0,WSW,18.4,29.9,N/A,,Clear,250,2013-04-29 18:53:00
12:53 PM,53.1,33.1,47,30.11,10.0,WSW,23.0,28.8,N/A,,Clear,240,2013-04-29 19:53:00
1:53 PM,53.1,36.0,52,30.12,10.0,WSW,19.6,28.8,N/A,,Clear,240,2013-04-29 20:53:00
2:53 PM,54.0,30.9,41,30.12,10.0,WSW,17.3,29.9,N/A,,Clear,250,2013-04-29 21:53:00
3:53 PM,52.0,33.1,49,30.13,10.0,WSW,18.4,24.2,N/A,,Clear,250,2013-04-29 22:53:00
4:53 PM,52.0,33.1,49,30.13,10.0,West,13.8,29.9,N/A,,Partly Cloudy,260,2013-04-29 23:53:00
5:53 PM,50.0,33.1,52,30.14,10.0,West,11.5,-,N/A,,Scattered Clouds,270,2013-04-30 00:53:00
6:53 PM,48.9,33.1,54,30.13,10.0,WSW,16.1,24.2,N/A,,Partly Cloudy,240,2013-04-30 01:53:00
7:53 PM,45.0,34.0,65,30.13,10.0,WSW,17.3,25.3,N/A,,Clear,240,2013-04-30 02:53:00
8:53 PM,43.0,32.0,65,30.13,10.0,WSW,17.3,25.3,N/A,,Clear,240,2013-04-30 03:53:00
9:53 PM,42.1,33.1,70,30.14,10.0,WSW,13.8,23.0,N/A,,Clear,250,2013-04-30 04:53:00
10:53 PM,41.0,32.0,70,30.15,10.0,WSW,12.7,-,N/A,,Clear,250,2013-04-30 05:53:00
11:53 PM,39.9,33.1,77,30.16,10.0,West,13.8,-,N/A,,Clear,260,2013-04-30 06:53:00